Regional Weather Roundup
Issued by NWS

Home | Current Version | Previous Version | Graphics & Text | Print | Product List | Glossary On
Versions: 1 2 3 4 5 6 7 8 9 10 11 12 13 14 15 16 17 18 19 20 21 22 23 24 25 26 27 28 29 30 31 32 33 34 35 36 37 38 39 40 41 42 43 44 45 46 47 48 49 50
000
ASUS43 KDMX 021407
RWRIA

WEATHER ROUNDUP FOR IOWA
NATIONAL WEATHER SERVICE DES MOINES IA
900 AM CDT SAT MAY 02 2015

NOTE: "FAIR" INDICATES FEW OR NO CLOUDS BELOW 12,000 FEET WITH NO
SIGNIFICANT WEATHER AND/OR OBSTRUCTIONS TO VISIBILITY.

* - THESE STATIONS ARE NOT NWS STATIONS...THUS NOT UNDER NWS
QUALITY CONTROL.  THEY ALSO DO NOT REPORT WEATHER SUCH
AS PRECIPITATION OR FOG.

IAZ001>003-012>014-020>022-031>034-043>046-021500-
   NORTHWEST IOWA

CITY           SKY/WX    TMP DP  RH WIND       PRES   REMARKS
CARROLL *      SUNNY     57  50  77 S6G13     29.94F
CHEROKEE *     CLOUDY    54  50  87 CALM      29.91F
DENISON *      SUNNY     57  52  82 S10       29.93R
LE MARS *      SUNNY     57  48  72 SE7       29.90F
ORANGE CITY *  SUNNY     54  46  76 SE3       29.90F
SHELDON *      SUNNY     57  48  72 S7        29.90F
SIOUX CITY     CLOUDY    55  47  74 E13       29.89F
SPENCER        MOSUNNY   57  48  72 S5        29.92F
STORM LAKE *   SUNNY     55  46  71 S6        29.92F
$$

IAZ055>058-069>071-079>083-090>094-021500-
   SOUTHWEST IOWA

CITY           SKY/WX    TMP DP  RH WIND       PRES   REMARKS
ATLANTIC *     SUNNY     61  50  67 SW10      29.98R
AUDUBON *      SUNNY     57  48  72 S12       29.97S
CLARINDA *     PTSUNNY   55  52  88 S14G21    30.02F
COUNCIL BLFS * LGT RAIN  57  57 100 S12       29.99S
CRESTON *      CLOUDY    59  46  63 S14       30.00F
HARLAN  *      MOSUNNY   59  52  77 S16       29.99R
LAMONI         CLOUDY    58  44  60 SW12      30.03F
RED OAK *      CLOUDY    59  54  82 S10       29.99R
SHENANDOAH *   CLOUDY    57  54  88 S18       30.00S
$$

IAZ047>049-059>061-072>074-084-021500-
   CENTRAL IOWA

CITY           SKY/WX    TMP DP  RH WIND       PRES   REMARKS
AMES           PTSUNNY   61  44  53 S12       29.98F
ANKENY *       SUNNY     59  43  55 S9        29.99F
CHARITON *     SUNNY     61  43  51 S13G20    30.02F
DES MOINES     CLOUDY    61  43  51 S9        30.00F
GRINNELL*      PTSUNNY   63  41  45 S14       30.03F
KNOXVILLE *    SUNNY     61  43  51 S9        30.02S
MARSHALLTOWN   PTSUNNY   63  41  44 S13       29.99F
PELLA *        PTSUNNY   61  46  59 S13       30.04F
PERRY *          N/A     63  46  55 S17       29.96F
$$

IAZ004>006-015-016-023>025-035-036-021500-
   NORTH CENTRAL IOWA

CITY           SKY/WX    TMP DP  RH WIND       PRES   REMARKS
ALGONA *       SUNNY     57  46  67 S13       29.95F
CLARION *      SUNNY     63  43  48 S17       29.95F
ESTHERVILLE    SUNNY     55  46  71 S7        29.93F
FORT DODGE *   MOSUNNY   61  45  55 S9        29.95F
MASON CITY     SUNNY     62  45  53 S15G22    29.98F
FOREST CITY *  SUNNY     61  43  51 S13       29.96F
IOWA FALLS *     N/A     64  41  42 S17       29.98F
$$

IAZ007>011-017>019-026>030-037>042-050>054-066-021500-
   NORTHEAST IOWA

CITY           SKY/WX    TMP DP  RH WIND       PRES   REMARKS
CEDAR RAPIDS   MOSUNNY   63  41  44 S10       30.05S
CHARLES CITY * SUNNY     63  43  48 S13       29.99F
CLINTON *        N/A     63  41  45 SW8       30.10S
DECORAH *      SUNNY     63  39  42 S8G14     30.00F
DUBUQUE        SUNNY     61  40  45 SW12      30.05F
MONTICELLO *   SUNNY     64  39  39 S13       30.05S
OELWEIN *      SUNNY     64  39  39 S14       30.02F
WATERLOO       SUNNY     63  41  44 S13       30.00F
$$

IAZ064-065-067-068-078-021500-
   EAST CENTRAL IOWA

CITY           SKY/WX    TMP DP  RH WIND       PRES   REMARKS
DAVENPORT      SUNNY     64  37  36 SW12      30.08S
IOWA CITY      CLOUDY    60  45  57 SE5       30.07F
MT. PLEASANT * CLOUDY    61  43  51 S9        30.08S
MUSCATINE *    SUNNY     61  46  59 S5        30.08S
QUAD CITIES    SUNNY     65  40  39 SW10      30.07F
$$

IAZ062-063-075>077-085>089-095>099-021500-
   SOUTHEAST IOWA

CITY           SKY/WX    TMP DP  RH WIND       PRES   REMARKS
BURLINGTON     MOSUNNY   61  44  53 SW8       30.08F
FAIRFIELD *    MOSUNNY   63  41  45 S12       30.06F
FORT MADISON * MOSUNNY   63  43  48 S7        30.09S
KEOKUK *       MOSUNNY   64  45  48 S9        30.08S
OSKALOOSA *    PTSUNNY   63  41  45 S14       30.05S
CENTERVILLE *  SUNNY     59  45  58 S9        30.07S
OTTUMWA        PTSUNNY   61  43  51 S13       30.05S
WASHINGTON *   CLOUDY    63  43  48 S12       30.06S
$$

ABBREVIATIONS USED IN REMARKS
   TC - TEMPERATURES IN CELSIUS
  WCI - WIND CHILL INDEX
   HX - HEAT INDEX
  VSB - VISIBILITY
$$




USA.gov is the U.S. government's official web portal to all federal, state and local government web resources and services.